Fremont, MI

3:48 PM EST on December 05, 2019 (GMT -0500)
Fremont

Weather History for KFFX - October, 2019

Change the Weather History Date:

Wednesday, October 9, 2019

  Actual Average (WUND) Record (WUND)
Temperature  
Mean Temperature 57 °F -  
Max Temperature 68 °F - - (-1)
Min Temperature 46 °F - - (-1)
Degree Days  
Heating Degree Days 8    
Growing Degree Days 7 (Base 50)    
Moisture  
Dew Point 41 °F    
Average Humidity 61    
Maximum Humidity 97    
Minimum Humidity 28    
Precipitation  
Precipitation 0.00 in - - ()
Sea Level Pressure  
Sea Level Pressure 30.19 in    
Wind  
Wind Speed 5 mph ()    
Max Wind Speed 9 mph    
Max Gust Speed -    
Visibility 10.0 miles    
Events      
Averages and records for this station are not official NWS values.
T = Trace of Precipitation, MM = Missing Value Source: Averaged Metar Reports

Daily Weather History Graph

Daily Weather History Graph

Search for Another Location

Airport or City:

Astronomy

Oct. 09, 2019 Rise Set
Actual Time 7:50 AM EDT 7:11 PM EDT
Civil Twilight 7:21 AM EDT 7:39 PM EDT
Nautical Twilight 6:48 AM EDT 8:12 PM EDT
Astronomical Twilight 6:15 AM EDT 8:46 PM EDT
Moon 5:51 PM EDT (10/9) 3:26 AM EDT (10/9)
Length of Visible Light 12h 18m
Length of Day
11h 20m
Waxing Gibbous, 85% of the Moon is Illuminated
Oct 9
Waxing Gibbous
Oct 13
Full
Oct 21
Last Quarter
Oct 27
New
Nov 4
First Quarter

Hourly Weather History & Observations

Time (EDT) Temp. Windchill Dew Point Humidity Pressure Visibility Wind Dir Wind Speed Gust Speed Precip Events Conditions
12:15 AM 49.6 °F - 36.5 °F 61% 30.19 in 10.0 mi East 4.6 mph - N/A   Clear
12:16 AM 49.6 °F - 36.5 °F 61% 30.19 in 10.0 mi East 4.6 mph - N/A   Clear
12:35 AM 50.0 °F - 36.5 °F 60% 30.19 in 10.0 mi East 5.8 mph - N/A   Clear
12:59 AM 49.3 °F - 36.5 °F 61% 30.19 in 10.0 mi East 4.6 mph - N/A   Clear
1:17 AM 49.3 °F - 36.5 °F 61% 30.19 in 10.0 mi East 5.8 mph - N/A   Clear
1:35 AM 49.1 °F - 36.7 °F 62% 30.19 in 10.0 mi East 6.9 mph - N/A   Clear
1:36 AM 49.1 °F - 36.7 °F 62% 30.19 in 10.0 mi East 6.9 mph - N/A   Clear
1:55 AM 49.5 °F - 37.4 °F 63% 30.19 in 10.0 mi East 6.9 mph - N/A   Clear
1:56 AM 49.5 °F - 37.4 °F 63% 30.19 in 10.0 mi East 6.9 mph - N/A   Clear
2:15 AM 49.3 °F - 37.4 °F 64% 30.19 in 10.0 mi East 5.8 mph - N/A   Clear
2:38 AM 48.4 °F - 37.4 °F 66% 30.20 in 10.0 mi East 5.8 mph - N/A   Clear
2:56 AM 48.2 °F - 37.4 °F 66% 30.20 in 10.0 mi East 4.6 mph - N/A   Clear
3:15 AM 47.5 °F - 37.0 °F 67% 30.20 in 10.0 mi East 3.5 mph - N/A   Clear
3:35 AM 46.8 °F - 37.0 °F 69% 30.20 in 10.0 mi East 3.5 mph - N/A   Clear
3:59 AM 46.4 °F 45.2 °F 39.2 °F 76% 30.19 in 10.0 mi East 3.5 mph - N/A   Clear
4:35 AM 46.6 °F - 42.8 °F 87% 30.20 in 10.0 mi East 4.6 mph - N/A   Clear
4:55 AM 47.5 °F - 44.1 °F 88% 30.20 in 10.0 mi East 5.8 mph - N/A   Clear
4:56 AM 47.5 °F - 44.1 °F 88% 30.20 in 10.0 mi East 5.8 mph - N/A   Clear
5:15 AM 47.3 °F - 44.4 °F 90% 30.20 in 10.0 mi East 4.6 mph - N/A   Clear
5:20 AM 47.5 °F - 44.6 °F 90% 30.20 in 10.0 mi East 5.8 mph - N/A   Clear
5:38 AM 48.0 °F - 45.3 °F 90% 30.20 in 10.0 mi East 5.8 mph - N/A   Clear
5:56 AM 47.7 °F - 45.5 °F 92% 30.21 in 10.0 mi East 4.6 mph - N/A   Clear
6:15 AM 47.7 °F - 45.7 °F 93% 30.21 in 10.0 mi East 4.6 mph - N/A   Clear
6:35 AM 47.7 °F - 46.0 °F 94% 30.22 in 10.0 mi East 4.6 mph - N/A   Clear
6:59 AM 47.3 °F - 46.0 °F 95% 30.23 in 10.0 mi East 5.8 mph - N/A   Clear
7:17 AM 47.5 °F - 46.2 °F 95% 30.23 in 10.0 mi East 4.6 mph - N/A   Clear
7:35 AM 47.3 °F - 46.2 °F 96% 30.23 in 10.0 mi East 4.6 mph - N/A   Clear
7:36 AM 47.3 °F - 46.2 °F 96% 30.23 in 10.0 mi East 5.8 mph - N/A   Clear
7:55 AM 47.3 °F - 46.4 °F 97% 30.23 in 10.0 mi East 5.8 mph - N/A   Clear
8:15 AM 47.3 °F - 46.4 °F 97% 30.24 in 10.0 mi East 5.8 mph - N/A   Clear
8:20 AM 47.7 °F - 46.6 °F 96% 30.24 in 10.0 mi East 5.8 mph - N/A   Clear
8:38 AM 48.6 °F - 47.1 °F 95% 30.24 in 10.0 mi East 5.8 mph - N/A   Clear
8:56 AM 49.5 °F - 47.5 °F 93% 30.24 in 10.0 mi East 6.9 mph - N/A   Clear
9:15 AM 50.7 °F - 48.0 °F 90% 30.24 in 10.0 mi ESE 5.8 mph - N/A   Clear
9:16 AM 50.9 °F - 48.0 °F 90% 30.24 in 10.0 mi East 6.9 mph - N/A   Clear
9:35 AM 52.2 °F - 47.7 °F 85% 30.25 in 10.0 mi ESE 5.8 mph - N/A   Clear
9:36 AM 52.2 °F - 47.7 °F 85% 30.25 in 10.0 mi ESE 4.6 mph - N/A   Clear
10:17 AM 54.9 °F - 44.4 °F 68% 30.25 in 10.0 mi SE 4.6 mph - N/A   Clear
10:35 AM 56.3 °F - 44.8 °F 65% 30.24 in 10.0 mi SE 3.5 mph - N/A   Clear
10:55 AM 58.5 °F - 44.2 °F 59% 30.24 in 10.0 mi Calm Calm - N/A   Clear
10:56 AM 58.6 °F - 44.4 °F 59% 30.24 in 10.0 mi SE 3.5 mph - N/A   Clear
11:15 AM 60.8 °F - 44.4 °F 55% 30.24 in 10.0 mi SE 5.8 mph - N/A   Clear
11:38 AM 62.6 °F - 43.5 °F 50% 30.23 in 10.0 mi SE 3.5 mph - N/A   Scattered Clouds
11:56 AM 64.0 °F - 41.4 °F 43% 30.23 in 10.0 mi SSE 6.9 mph - N/A   Clear
12:15 PM 65.5 °F - 40.8 °F 41% 30.23 in 10.0 mi SE 5.8 mph - N/A   Scattered Clouds
12:35 PM 66.0 °F - 38.3 °F 36% 30.22 in 10.0 mi SSE 8.1 mph - N/A   Clear
12:59 PM 66.4 °F - 37.8 °F 35% 30.22 in 10.0 mi South 6.9 mph - N/A   Clear
1:17 PM 67.1 °F - 36.5 °F 32% 30.21 in 10.0 mi SSE 8.1 mph - N/A   Clear
1:35 PM 67.6 °F - 35.8 °F 31% 30.21 in 10.0 mi SSE 9.2 mph - N/A   Clear
1:55 PM 68.2 °F - 35.6 °F 30% 30.20 in 10.0 mi SE 6.9 mph - N/A   Clear
2:15 PM 68.4 °F - 36.0 °F 30% 30.19 in 10.0 mi SE 5.8 mph - N/A   Clear
2:38 PM 68.0 °F - 33.4 °F 28% 30.18 in 10.0 mi SE 5.8 mph - N/A   Clear
2:56 PM 68.5 °F - 35.2 °F 29% 30.18 in 10.0 mi South 6.9 mph - N/A   Clear
3:15 PM 68.2 °F - 34.2 °F 28% 30.18 in 10.0 mi SE 6.9 mph - N/A   Clear
3:35 PM 68.5 °F - 34.3 °F 28% 30.17 in 10.0 mi SE 6.9 mph - N/A   Clear
4:17 PM 68.9 °F - 34.3 °F 28% 30.16 in 10.0 mi ESE 8.1 mph - N/A   Clear
4:35 PM 68.5 °F - 35.1 °F 29% 30.15 in 10.0 mi SE 8.1 mph - N/A   Clear
4:36 PM 68.5 °F - 35.1 °F 29% 30.15 in 10.0 mi SSE 9.2 mph - N/A   Clear
4:56 PM 68.9 °F - 36.7 °F 31% 30.14 in 10.0 mi ESE 9.2 mph - N/A   Clear
5:15 PM 68.5 °F - 35.4 °F 30% 30.14 in 10.0 mi ESE 9.2 mph - N/A   Clear
5:38 PM 68.0 °F - 36.0 °F 31% 30.13 in 10.0 mi SE 9.2 mph - N/A   Clear
5:56 PM 67.5 °F - 35.8 °F 31% 30.13 in 10.0 mi East 4.6 mph - N/A   Clear
6:15 PM 66.6 °F - 37.4 °F 34% 30.13 in 10.0 mi ESE 6.9 mph - N/A   Clear
6:16 PM 66.6 °F - 37.4 °F 34% 30.13 in 10.0 mi ESE 5.8 mph - N/A   Clear
6:35 PM 65.3 °F - 37.9 °F 36% 30.14 in 10.0 mi ESE 5.8 mph - N/A   Clear
6:59 PM 63.0 °F - 39.6 °F 42% 30.15 in 10.0 mi Calm Calm - N/A   Clear
7:17 PM 62.1 °F - 40.8 °F 46% 30.15 in 10.0 mi Calm Calm - N/A   Clear
7:35 PM 61.2 °F - 41.4 °F 48% 30.15 in 10.0 mi Calm Calm - N/A   Clear
7:36 PM 61.2 °F - 41.5 °F 48% 30.15 in 10.0 mi Calm Calm - N/A   Clear
7:55 PM 58.5 °F - 42.4 °F 55% 30.15 in 10.0 mi Calm Calm - N/A   Clear
8:15 PM 59.0 °F - 42.6 °F 55% 30.16 in 10.0 mi Calm Calm - N/A   Clear
8:38 PM 58.1 °F - 42.6 °F 56% 30.16 in 10.0 mi Calm Calm - N/A   Clear
8:56 PM 57.7 °F - 43.0 °F 58% 30.16 in 10.0 mi ESE 3.5 mph - N/A   Clear
9:15 PM 57.2 °F - 43.3 °F 60% 30.16 in 10.0 mi ESE 3.5 mph - N/A   Clear
9:35 PM 57.2 °F - 43.5 °F 60% 30.16 in 10.0 mi Calm Calm - N/A   Clear
9:59 PM 56.7 °F - 43.7 °F 62% 30.17 in 10.0 mi Calm Calm - N/A   Clear
10:17 PM 56.3 °F - 43.9 °F 63% 30.17 in 10.0 mi East 3.5 mph - N/A   Clear
10:35 PM 55.9 °F - 44.1 °F 64% 30.17 in 10.0 mi East 4.6 mph - N/A   Clear
10:55 PM 56.3 °F - 44.1 °F 64% 30.17 in 10.0 mi ESE 6.9 mph - N/A   Clear
11:15 PM 55.8 °F - 44.2 °F 65% 30.18 in 10.0 mi ESE 5.8 mph - N/A   Clear
11:38 PM 55.4 °F - 44.2 °F 66% 30.18 in 10.0 mi ESE 5.8 mph - N/A   Clear
11:56 PM 54.7 °F - 44.2 °F 68% 30.18 in 10.0 mi ESE 4.6 mph - N/A   Clear